Location: Lac Lasalle
(46.0398°N, 74.1576°W)
Time: 06:38:53
(UTC-05:00)

PCSat - Pass Details

Date: 18 December 2019
Orbit: 785 x 794 km, 67.1° (Epoch: 28 January)

Event Time Altitude Azimuth Distance (km) Brightness Sun altitude
Rises 18:18:36 0° 331° (NNW) 3,303 13.0 -20.9°
Reaches altitude 10° 18:22:54 10° 3° (N) 2,372 11.9 -21.6°
Enters shadow 18:23:29 11° 9° (N) 2,309 11.8 -21.7°
